Voltar ao catálogo

STARLINK-30527

AtivoComunicaçõesVLEO
NORAD 58007·PAYLOAD·🇺🇸 United States

Lançado Oct 5, 2023 de Cape Canaveral Space Force Station

Loading…

Próximas Passagens (próximas 24 horas)

TLE

AtualizadoSource: CelesTrak SupGP

Época: Sep 14, 2026, 20:55 UTC

1 58007C 23153S   26257.87201389  .00033749  00000+0  12222-2 0  2577
2 58007  43.0001 209.9801 0001369 263.4294  59.6814 15.27566496    13

Acompanhe STARLINK-30527 em tempo real com AllMySat

Download on the App Store